Tracking 35274 objects as of 11-Sep-2026
HD Live streaming from Space Station
objects crossing your sky now

ANIK C1 R/B(PAM-D)

Track ANIK C1 R/B(PAM-D) now!


NORAD ID: 15644
Int'l Code: 1985-028D
Launch date: April 12, 1985
Source: United States (US)
Launch site: AIR FORCE EASTERN TEST RANGE (AFETR)

Note: This is a ROCKET BODY
Your satellite tracking list
Your tracking list is empty




NASA's NSSDC Master Catalog

Two Line Element Set (TLE):
1 15644U 85028D   26252.88913223  .00001821  00000-0  19536-2 0  9994
2 15644  23.0764 103.2473 6826285  45.7830 353.2475  2.81821284389159
Source of the keplerian elements: AFSPC